National Weather Service Raw Text Product

Displaying AFOS PIL: RWRIA Received: 2018-02-09 10:00 UTC


984 
ASUS43 KDMX 091006
RWRIA 

WEATHER ROUNDUP FOR IOWA
NATIONAL WEATHER SERVICE DES MOINES IA
400 AM CST FRI FEB 09 2018

NOTE: "FAIR" INDICATES FEW OR NO CLOUDS BELOW 12,000 FEET WITH NO
SIGNIFICANT WEATHER AND/OR OBSTRUCTIONS TO VISIBILITY.

* - THESE STATIONS ARE NOT NWS STATIONS...THUS NOT UNDER NWS
QUALITY CONTROL.  THEY ALSO DO NOT REPORT WEATHER SUCH 
AS PRECIPITATION OR FOG.  

IAZ001>003-012>014-020>022-031>034-043>046-091100-
   NORTHWEST IOWA
  
CITY           SKY/WX    TMP DP  RH WIND       PRES   REMARKS
CARROLL *      LGT SNOW  12  10  92 N20       30.23R WCI  -6          
CHEROKEE *     CLOUDY    10   6  82 NE13      30.28R WCI  -5          
DENISON *      CLOUDY    12   9  85 NE14G23   30.23R FOG     WCI  -3  
LE MARS *      CLOUDY    10   7  85 N16G24    30.30R WCI  -7          
ORANGE CITY *  FLURRIES  10   7  85 NE15      30.28R WCI  -6          
SHELDON *      FLURRIES   7   3  85 NE17      30.28R WCI -12          
SIOUX CITY     CLOUDY    12   7  80 N16       30.31R WCI  -5          
SPENCER        CLOUDY     9   4  80 N18G28    30.29R WCI -10          
STORM LAKE *   CLOUDY    10   7  85 NE18G25   30.23R WCI  -8          
$$
 
IAZ055>058-069>071-079>083-090>094-091100-
   SOUTHWEST IOWA
  
CITY           SKY/WX    TMP DP  RH WIND       PRES   REMARKS
ATLANTIC *     MOCLDY    18  14  86 NE20G25   30.18R WCI   1          
AUDUBON *      CLOUDY    16  10  79 N17       30.20R FOG     WCI   0  
CLARINDA *     CLOUDY    21  19  93 NE14G23   30.14R WCI   8          
COUNCIL BLFS * LGT SNOW  18  18 100 N18G28    30.17S WCI   2          
CRESTON *      CLOUDY    18  16  93 NE20      30.12R WCI   1          
HARLAN  *      CLOUDY    16  12  86 N20G26    30.23R WCI  -1          
LAMONI         CLOUDY    20  16  84 NE18      30.07R FOG     WCI   5  
RED OAK *      CLOUDY    19  16  86 N20       30.16R WCI   4          
SHENANDOAH *   CLOUDY    21  18  86 NE17G24   30.14R WCI   7          
$$
 
IAZ047>049-059>061-072>074-084-091100-
   CENTRAL IOWA
  
CITY           SKY/WX    TMP DP  RH WIND       PRES   REMARKS
AMES           CLOUDY    16  11  80 NE15      30.20S WCI   1          
ANKENY *       LGT SNOW  18  14  86 N17       30.20S WCI   2          
BOONE *        LGT SNOW  14  12  92 N21       30.19R WCI  -4          
CHARITON *     CLOUDY    19  18  93 N13       30.11R WCI   7          
DES MOINES     FLURRIES  19  14  81 N20G25    30.17R WCI   3          
GRINNELL*      LGT SNOW  18  15  89 N16G23    30.15R WCI   3          
KNOXVILLE *    CLOUDY    19  16  86 N14G21    30.13R WCI   6          
MARSHALLTOWN   CLOUDY    16  13  88 N21       30.18S WCI  -1          
NEWTON *       LGT SNOW  18  16  93 NE20G29   30.15R WCI   1          
PELLA *        CLOUDY    20  16  86 N12G18    30.15R WCI   8          
PERRY *        LGT SNOW  16  13  88 N17G23    30.21R WCI   0          
$$
 
IAZ004>006-015-016-023>025-035-036-091100-
   NORTH CENTRAL IOWA
  
CITY           SKY/WX    TMP DP  RH WIND       PRES   REMARKS
ALGONA *       CLOUDY    10 N/A N/A N16G22    30.25R WCI  -7          
CLARION *      CLOUDY    12  12 100 NE17      30.23S WCI  -5          
ESTHERVILLE    CLOUDY     6   3  87 N15       30.28R WCI -12          
FORT DODGE *   CLOUDY    12   8  84 NE16      30.23S WCI  -5          
MASON CITY     CLOUDY    11   6  81 NE13      30.25S WCI  -4          
FOREST CITY *  FLURRIES  12   7  79 NE15      30.24S WCI  -4          
WEBSTER CITY * CLOUDY    14   9  79 N15       30.21R WCI  -1          
IOWA FALLS *   CLOUDY    15  11  85 N16G24    30.22R WCI  -1          
$$

IAZ007>011-017>019-026>030-037>042-050>054-066-091100-
   NORTHEAST IOWA
  
CITY           SKY/WX    TMP DP  RH WIND       PRES   REMARKS
CEDAR RAPIDS   CLOUDY    19  15  84 NE16G26   30.14R FOG     WCI   4  
CHARLES CITY * CLOUDY    12  10  92 NE15      30.23F WCI  -4          
DECORAH *      LGT SNOW  12   9  85 N12G18    30.23R WCI  -2          
DUBUQUE        CLOUDY    16  12  84 NE21      30.15F FOG     WCI  -1  
MONTICELLO *   LGT SNOW  18  14  86 N15       30.17R WCI   3          
OELWEIN *      CLOUDY    16  16 100 N14G22    30.20S WCI   1          
WATERLOO       CLOUDY    15  10  80 N18       30.21R WCI  -2          
$$
 
IAZ064-065-067-068-078-091100-
   EAST CENTRAL IOWA
  
CITY           SKY/WX    TMP DP  RH WIND       PRES   REMARKS
DAVENPORT      SNOW      21  17  84 NE12      30.12F VSB 1/2 WCI   9  
IOWA CITY      LGT SNOW  21  15  78 NE12      30.13F WCI   9          
MT. PLEASANT * CLOUDY    23  19  86 N9        30.09R FOG     WCI  13  
MUSCATINE *    FLURRIES  21  18  86 NE12      30.12R WCI   9          
QUAD CITIES    LGT SNOW  23  19  85 NE9       30.09F FOG     WCI  13  
$$
 
IAZ062-063-075>077-085>089-095>099-091100-
   SOUTHEAST IOWA
  
CITY           SKY/WX    TMP DP  RH WIND       PRES   REMARKS
BURLINGTON     CLOUDY    26  22  84 NE10      30.05S WCI  16          
FAIRFIELD *    CLOUDY    21  18  86 N15       30.10R WCI   8          
FORT MADISON * CLOUDY    27  23  86 NE5       30.06F WCI  21          
KEOKUK *       CLOUDY    30  27  86 N6        30.04F WCI  24          
OSKALOOSA *    MOCLDY    20  17  89 NE15      30.12S WCI   6          
OTTUMWA        CLOUDY    20  16  84 N13       30.11R WCI   7          
WASHINGTON *   LGT SNOW  21  21 100 NE17      30.11S WCI   7          
$$

ABBREVIATIONS USED IN REMARKS
   TC - TEMPERATURES IN CELSIUS
  WCI - WIND CHILL INDEX
   HX - HEAT INDEX
  VSB - VISIBILITY  
$$

  

067 
ASUS43 KDMX 091001
RWRIA 

WEATHER ROUNDUP FOR IOWA
NATIONAL WEATHER SERVICE DES MOINES IA
400 AM CST FRI FEB 09 2018

NOTE: "FAIR" INDICATES FEW OR NO CLOUDS BELOW 12,000 FEET WITH NO
SIGNIFICANT WEATHER AND/OR OBSTRUCTIONS TO VISIBILITY.

* - THESE STATIONS ARE NOT NWS STATIONS...THUS NOT UNDER NWS
QUALITY CONTROL.  THEY ALSO DO NOT REPORT WEATHER SUCH 
AS PRECIPITATION OR FOG.  

IAZ001>003-012>014-020>022-031>034-043>046-091100-
   NORTHWEST IOWA
  
CITY           SKY/WX    TMP DP  RH WIND       PRES   REMARKS
CARROLL *      LGT SNOW  12  10  92 N20       30.23R WCI  -6          
CHEROKEE *     CLOUDY    10   6  82 NE13      30.28R WCI  -5          
DENISON *      CLOUDY    12   9  85 NE14G23   30.23R FOG     WCI  -3  
LE MARS *      CLOUDY    10   7  85 N16G24    30.30R WCI  -7          
ORANGE CITY *  FLURRIES  10   7  85 NE15      30.28R WCI  -6          
SHELDON *      FLURRIES   7   3  85 NE17      30.28R WCI -12          
SIOUX CITY     CLOUDY    12   7  80 N16       30.31R WCI  -5          
SPENCER        CLOUDY     9   4  80 N18G28    30.29R WCI -10          
STORM LAKE *   CLOUDY    10   7  85 NE18G25   30.23R WCI  -8          
$$
 
IAZ055>058-069>071-079>083-090>094-091100-
   SOUTHWEST IOWA
  
CITY           SKY/WX    TMP DP  RH WIND       PRES   REMARKS
ATLANTIC *     MOCLDY    18  14  86 NE20G25   30.18R WCI   1          
AUDUBON *      CLOUDY    16  10  79 N17       30.20R FOG     WCI   0  
CLARINDA *     CLOUDY    21  19  93 NE14G23   30.14R WCI   8          
COUNCIL BLFS * LGT SNOW  18  18 100 N18G28    30.17S WCI   2          
CRESTON *      CLOUDY    18  16  93 NE20      30.12R WCI   1          
HARLAN  *      CLOUDY    16  12  86 N20G26    30.23R WCI  -1          
LAMONI         CLOUDY    20  16  84 NE18      30.07R FOG     WCI   5  
RED OAK *      CLOUDY    19  16  86 N20       30.16R WCI   4          
SHENANDOAH *   CLOUDY    21  18  86 NE17G24   30.14R WCI   7          
$$
 
IAZ047>049-059>061-072>074-084-091100-
   CENTRAL IOWA
  
CITY           SKY/WX    TMP DP  RH WIND       PRES   REMARKS
AMES           CLOUDY    16  11  80 NE15      30.20S WCI   1          
ANKENY *       LGT SNOW  18  14  86 N17       30.20S WCI   2          
BOONE *        LGT SNOW  14  12  92 N21       30.19R WCI  -4          
CHARITON *     CLOUDY    19  18  93 N13       30.11R WCI   7          
DES MOINES     FLURRIES  19  14  81 N20G25    30.17R WCI   3          
GRINNELL*      LGT SNOW  18  15  89 N16G23    30.15R WCI   3          
KNOXVILLE *    CLOUDY    19  16  86 N14G21    30.13R WCI   6          
MARSHALLTOWN   CLOUDY    16  13  88 N21       30.18S WCI  -1          
NEWTON *       LGT SNOW  18  16  93 NE20G29   30.15R WCI   1          
PELLA *        CLOUDY    20  16  86 N12G18    30.15R WCI   8          
PERRY *        LGT SNOW  16  13  88 N17G23    30.21R WCI   0          
$$
 
IAZ004>006-015-016-023>025-035-036-091100-
   NORTH CENTRAL IOWA
  
CITY           SKY/WX    TMP DP  RH WIND       PRES   REMARKS
CLARION *      CLOUDY    12  12 100 NE17      30.23S WCI  -5          
ESTHERVILLE    CLOUDY     6   3  87 N15       30.28R WCI -12          
FORT DODGE *   CLOUDY    12   8  84 NE16      30.23S WCI  -5          
MASON CITY     CLOUDY    11   6  81 NE13      30.25S WCI  -4          
FOREST CITY *  FLURRIES  12   7  79 NE15      30.24S WCI  -4          
WEBSTER CITY * CLOUDY    14   9  79 N15       30.21R WCI  -1          
IOWA FALLS *   CLOUDY    15  11  85 N16G24    30.22R WCI  -1          
$$

IAZ007>011-017>019-026>030-037>042-050>054-066-091100-
   NORTHEAST IOWA
  
CITY           SKY/WX    TMP DP  RH WIND       PRES   REMARKS
CEDAR RAPIDS   CLOUDY    19  15  84 NE16G26   30.14R FOG     WCI   4  
CHARLES CITY * CLOUDY    12  10  92 NE15      30.23F WCI  -4          
DECORAH *      LGT SNOW  12   9  85 N12G18    30.23R WCI  -2          
DUBUQUE        CLOUDY    16  12  84 NE21      30.15F FOG     WCI  -1  
MONTICELLO *   LGT SNOW  18  14  86 N15       30.17R WCI   3          
OELWEIN *      CLOUDY    16  16 100 N14G22    30.20S WCI   1          
WATERLOO       CLOUDY    15  10  80 N18       30.21R WCI  -2          
$$
 
IAZ064-065-067-068-078-091100-
   EAST CENTRAL IOWA
  
CITY           SKY/WX    TMP DP  RH WIND       PRES   REMARKS
DAVENPORT      SNOW      21  17  84 NE12      30.12F VSB 1/2 WCI   9  
IOWA CITY      LGT SNOW  21  15  78 N15       30.14F WCI   8          
MT. PLEASANT * CLOUDY    23  19  86 N9        30.09R FOG     WCI  13  
MUSCATINE *    FLURRIES  21  18  86 NE12      30.12R WCI   9          
QUAD CITIES    LGT SNOW  23  19  85 NE10      30.09F FOG     WCI  12  
$$
 
IAZ062-063-075>077-085>089-095>099-091100-
   SOUTHEAST IOWA
  
CITY           SKY/WX    TMP DP  RH WIND       PRES   REMARKS
BURLINGTON     CLOUDY    26  22  84 NE10      30.05S WCI  16          
FAIRFIELD *    CLOUDY    21  18  86 N15       30.10R WCI   8          
FORT MADISON * CLOUDY    27  23  86 NE5       30.06F WCI  21          
KEOKUK *       CLOUDY    30  27  86 N6        30.04F WCI  24          
OSKALOOSA *    MOCLDY    20  17  89 NE15      30.12S WCI   6          
OTTUMWA        CLOUDY    20  16  84 N13       30.11R WCI   7          
WASHINGTON *   LGT SNOW  21  21 100 NE17      30.11S WCI   7          
$$

ABBREVIATIONS USED IN REMARKS
   TC - TEMPERATURES IN CELSIUS
  WCI - WIND CHILL INDEX
   HX - HEAT INDEX
  VSB - VISIBILITY  
$$